[[{"header":{"parameterUnit":"m.s-1","parameterCategory":1,"la1":30.2991,"la2":30.254,"lo1":-89.0895,"lo2":-89.0444,"dy":0.0017,"dx":0.0017,"nx":28,"ny":28,"refTime":"2026-02-18T03:00:00:Z","depth":0,"parameterNumber":2,"parameterNumberName":"U-component_of_WINDS"},"data":[0,0,0,0,0,0,0,0,0,0,0,0,0,0,0,0,0,0,0,0,0,0,0,0,0,0,0,0,0,0,0,0,0,0,0,0,0,0,0,0,0,0,0,0,0,0,0,0,0,0,0,0,0,0,0,0,0,0,-4.436,-4.4361,0,-4.4474,-4.4476,-4.4477,-4.4489,-4.4488,-4.4487,-4.4486,-4.4602,-4.4606,-4.461,0,0,0,0,0,0,0,0,0,0,0,0,0,-4.4155,-4.4159,-4.436,-4.4362,-4.4363,-4.4474,-4.4476,-4.4477,-4.4489,-4.4488,-4.4487,-4.4485,-4.4601,-4.4605,-4.461,0,0,0,0,0,0,0,0,0,0,0,0,0,-4.4254,-4.416,-4.436,-4.4382,-4.4386,-4.4474,-4.4476,-4.4478,-4.449,-4.4488,-4.4486,-4.4485,-4.4599,-4.4605,-4.4611,-4.4684,0,0,-4.463,-4.4633,0,0,0,0,0,0,0,0,-4.4249,-4.4262,-4.4378,-4.4381,-4.4385,-4.4466,-4.4446,-4.4547,-4.449,-4.445,-4.4486,-4.4484,-4.4558,-4.4567,-4.4593,-4.469,-4.4695,-4.4631,-4.4635,-4.4637,-4.4639,0,0,0,0,0,0,0,-4.4242,-4.4257,-4.4405,-4.4379,-4.4384,-4.4388,-4.44,-4.4465,-4.4512,-4.4453,-4.4455,-4.4468,-4.456,-4.4587,-4.4595,-4.4697,-4.4631,-4.4636,-4.464,-4.4643,-4.4863,-4.4865,0,0,0,0,0,0,-4.4231,-4.4251,-4.4402,-4.4409,-4.4311,-4.4393,-4.4406,-4.4441,-4.4512,-4.4521,-4.4469,-4.4468,-4.4577,-4.4588,-4.46,-4.4691,-4.4637,-4.4643,-4.4647,-4.4861,-4.4863,-4.4866,0,0,0,0,0,0,-4.4226,-4.4244,-4.4397,-4.433,-4.435,-4.4398,-4.4437,-4.4445,-4.4471,-4.4524,-4.4532,-4.4488,-4.4576,-4.4591,-4.4664,-4.4695,-4.4646,-4.4652,-4.4858,-4.4862,-4.4865,-4.4873,0,0,0,0,0,0,-4.422,-4.4242,-4.4269,-4.4331,-4.4354,-4.4458,-4.4439,-4.4448,-4.4482,-4.4482,-4.4543,-4.4552,-4.4576,-4.4655,-4.467,-4.4703,-4.4657,-4.4856,-4.486,-4.4864,-4.487,-4.4876,-4.4881,0,0,0,0,0,-4.4213,-4.4266,-4.4271,-4.4289,-4.4389,-4.446,-4.4473,-4.4499,-4.4485,-4.4513,-4.4548,-4.455,-4.469,-4.4662,-4.468,-4.4714,-4.4854,-4.4859,-4.4863,-4.4867,-4.4875,-4.4881,0,0,0,0,0,0,-4.4205,-4.4274,-4.428,-4.4355,-4.4402,-4.4462,-4.4498,-4.4506,-4.4557,-4.4554,-4.4585,-4.4599,-4.4671,-4.4701,-4.4668,-4.4791,-4.4771,-4.4779,-4.4768,-4.4775,-4.478,-4.477,-4.4662,0,0,0,0,0,-4.4213,-4.4265,-4.4323,-4.4383,-4.4407,-4.4449,-4.4481,-4.4498,-4.4547,-4.4566,-4.4606,-4.4654,-4.4709,-4.4744,-4.4798,-4.4876,-4.489,-4.4909,-4.4915,-4.4919,-4.4925,-4.497,-4.498,-4.4881,-4.4881,-4.4881,0,0,-4.4228,-4.4272,-4.4303,-4.4383,-4.4421,-4.4475,-4.4465,-4.4521,-4.4562,-4.4575,-4.4646,-4.4678,-4.4734,-4.481,-4.4846,-4.4837,-4.4956,-4.4925,-4.4928,-4.4932,-4.4976,-4.4985,-4.4994,-4.4885,-4.4884,-4.4883,0,0,-4.4282,-4.4321,-4.4376,-4.4416,-4.4475,-4.4503,-4.4517,-4.4578,-4.4599,-4.4672,-4.4684,-4.4733,-4.4827,-4.4867,-4.4899,-4.4976,-4.498,-4.4993,-4.502,-4.5064,-4.5071,-4.5078,-4.5105,-4.5114,-4.4999,-4.4999,-4.4999,0,-4.4292,-4.4373,-4.4404,-4.4461,-4.4497,-4.4514,-4.4571,-4.4608,-4.4681,-4.4706,-4.4696,-4.4816,-4.4855,-4.4942,-4.4961,-4.4987,-4.5004,-4.4983,-4.5068,-4.5075,-4.5082,-4.5108,-4.5118,-4.5,-4.5,-4.5,-4.5,0,-4.4384,-4.4441,-4.4479,-4.455,-4.4591,-4.4648,-4.4688,-4.4726,-4.4741,-4.4771,-4.4847,-4.4895,-4.4959,-4.4982,-4.4997,-4.5072,-4.5065,-4.5062,-4.5041,-4.5092,-4.5117,-4.5127,-4.5002,-4.5001,-4.5001,-4.5001,0,0,-4.4431,-4.4523,-4.4536,-4.457,-4.4639,-4.4683,-4.4743,-4.4807,-4.4839,-4.4891,-4.4941,-4.5023,-4.5022,-4.5059,-4.5079,-4.5118,-4.5176,-4.511,-4.5112,-4.5119,-4.5263,-4.5263,-4.5274,-4.5181,-4.5183,-4.5185,-4.5258,0,-4.4492,-4.4597,-4.4629,-4.4717,-4.4771,-4.4791,-4.4843,-4.4892,-4.4923,-4.4974,-4.5009,-4.5066,-4.506,-4.5083,-4.5123,-4.516,-4.5205,-4.5156,-4.5228,-4.523,-4.521,-4.5287,-4.5287,-4.5352,-4.5268,-4.5269,-4.5271,0,-4.4575,-4.463,-4.4724,-4.4789,-4.4813,-4.4859,-4.4922,-4.4971,-4.5028,-4.5048,-4.5093,-4.5111,-4.5175,-4.5155,-4.5245,-4.5211,-4.5244,-4.5268,-4.5271,-4.5276,-4.5251,-4.5292,-4.5374,-4.5383,-4.5286,-4.5285,-4.5284,0,-4.4598,-4.4696,-4.4766,-4.4794,-4.4872,-4.4905,-4.4939,-4.4994,-4.5032,-4.5089,-4.5114,-4.5177,-4.521,-4.526,-4.5295,-4.5277,-4.5382,-4.5365,-4.5401,-4.54,-4.5418,-4.5416,-4.5504,-4.5444,-4.5444,-4.5444,-4.5443,0,-4.4661,-4.4717,-4.4778,-4.482,-4.4885,-4.4923,-4.4987,-4.5022,-4.5072,-4.5123,-4.5146,-4.5193,-4.5238,-4.5292,-4.5321,-4.5391,-4.5407,-4.5426,-4.5432,-4.5422,-4.5419,-4.5441,-4.5436,-4.5446,-4.5446,-4.5445,-4.5445,0,-4.4696,-4.4738,-4.4815,-4.4885,-4.4904,-4.4949,-4.5009,-4.5052,-4.5086,-4.515,-4.5168,-4.5222,-4.5287,-4.5329,-4.5411,-4.5431,-4.5508,-4.5514,-4.5488,-4.549,-4.5523,-4.5519,-4.5626,-4.5642,-4.5573,-4.5574,-4.5574,0,-4.4731,-4.4775,-4.4851,-4.4887,-4.4922,-4.4979,-4.5019,-4.506,-4.51,-4.5172,-4.5206,-4.5273,-4.5328,-4.5432,-4.5479,-4.5543,-4.555,-4.5584,-4.5559,-4.5549,-4.5549,-4.5544,-4.5549,-4.5586,-4.5586,-4.5587,-4.5587,0,-4.4789,-4.481,-4.4866,-4.4931,-4.4978,-4.5031,-4.5083,-4.5112,-4.5162,-4.5207,-4.5275,-4.5318,-4.5404,-4.547,-4.554,-4.5576,-4.559,-4.5596,-4.5607,-4.5595,-4.5578,-4.5587,-4.5496,-4.5591,-4.5591,-4.5591,-4.559,-4.559,-4.4825,-4.4866,-4.4926,-4.4989,-4.5034,-4.5084,-4.5128,-4.517,-4.5227,-4.53,-4.5322,-4.5393,-4.5453,-4.5548,-4.5586,-4.5643,-4.5639,-4.5655,-4.5659,-4.5662,-4.5662,-4.5572,-4.5656,-4.5656,-4.5656,-4.5656,-4.5656,0,-4.4883,-4.4924,-4.4982,-4.5056,-4.5107,-4.5118,-4.5179,-4.522,-4.5282,-4.5337,-4.5392,-4.5471,-4.5537,-4.5592,-4.566,-4.5695,-4.5704,-4.5712,-4.5708,-4.5716,-4.5662,-4.5645,-4.5704,-4.5704,-4.5704,-4.5704,-4.5704,-4.5704,-4.4919,-4.4989,-4.5018,-4.5112,-4.5153,-4.5223,-4.5256,-4.5304,-4.5348,-4.5435,-4.5491,-4.5527,-4.5582,-4.5656,-4.5718,-4.5732,-4.5756,-4.5762,-4.5778,-4.5725,-4.572,-4.5714,-4.5698,-4.5767,-4.5767,-4.5827,-4.5827,-4.5828]},{"header":{"parameterUnit":"m.s-1","parameterCategory":1,"la1":30.2991,"la2":30.254,"lo1":-89.0895,"lo2":-89.0444,"dy":0.0017,"dx":0.0017,"nx":28,"ny":28,"refTime":"2026-02-18T03:00:00:Z","depth":0,"parameterNumber":3,"parameterNumberName":"V-component_of_WINDS"},"data":[0,0,0,0,0,0,0,0,0,0,0,0,0,0,0,0,0,0,0,0,0,0,0,0,0,0,0,0,0,0,0,0,0,0,0,0,0,0,0,0,0,0,0,0,0,0,0,0,0,0,0,0,0,0,0,0,0,0,2.5352,2.5353,0,2.5438,2.5439,2.544,2.5553,2.5555,2.5557,2.5559,2.564,2.564,2.564,0,0,0,0,0,0,0,0,0,0,0,0,0,2.5282,2.5283,2.5352,2.5353,2.5354,2.5438,2.5439,2.544,2.5553,2.5555,2.5557,2.556,2.5639,2.564,2.564,0,0,0,0,0,0,0,0,0,0,0,0,0,2.5334,2.5283,2.5352,2.5421,2.5428,2.5437,2.5439,2.544,2.5552,2.5555,2.5558,2.5561,2.5639,2.564,2.564,2.5587,0,0,2.5642,2.5643,0,0,0,0,0,0,0,0,2.5331,2.5337,2.5409,2.5416,2.5424,2.5488,2.5444,2.5489,2.5552,2.5505,2.5559,2.5562,2.5586,2.5591,2.5601,2.5591,2.5595,2.5642,2.5643,2.5643,2.5643,0,0,0,0,0,0,0,2.5327,2.5334,2.5386,2.541,2.5419,2.5446,2.5457,2.5453,2.5528,2.5509,2.5518,2.5526,2.5591,2.56,2.5604,2.5596,2.5642,2.5643,2.5643,2.5643,2.5551,2.5548,0,0,0,0,0,0,2.5314,2.533,2.5383,2.5388,2.5384,2.5445,2.5457,2.5464,2.5529,2.5541,2.5524,2.5531,2.5598,2.5603,2.5607,2.5552,2.5643,2.5643,2.5644,2.5553,2.555,2.5547,0,0,0,0,0,0,2.5312,2.5318,2.5379,2.5362,2.5371,2.5443,2.5451,2.5464,2.5474,2.554,2.5554,2.552,2.56,2.5606,2.5593,2.5556,2.5644,2.5644,2.5557,2.5552,2.5548,2.5439,0,0,0,0,0,0,2.531,2.5316,2.5298,2.536,2.5372,2.5364,2.5448,2.5464,2.5476,2.5486,2.554,2.5552,2.5603,2.5591,2.5593,2.5559,2.5645,2.556,2.5555,2.555,2.5446,2.5432,2.5419,0,0,0,0,0,2.5307,2.5261,2.5296,2.5302,2.535,2.5362,2.5369,2.5431,2.5472,2.5454,2.5497,2.555,2.556,2.5589,2.5592,2.5557,2.5563,2.5556,2.555,2.5452,2.5435,2.542,0,0,0,0,0,0,2.5189,2.527,2.531,2.5283,2.5315,2.5381,2.536,2.5409,2.5428,2.5437,2.5511,2.5522,2.55,2.5527,2.5558,2.5511,2.557,2.5563,2.5494,2.5478,2.5464,2.5458,2.5645,0,0,0,0,0,2.516,2.5165,2.5235,2.5205,2.5219,2.5286,2.5294,2.534,2.5374,2.5388,2.543,2.546,2.5471,2.5476,2.5488,2.5451,2.5465,2.5429,2.5415,2.5404,2.5397,2.5383,2.5368,2.5526,2.5526,2.5526,0,0,2.51,2.5145,2.5143,2.5182,2.5212,2.5215,2.5297,2.5295,2.5297,2.5387,2.5378,2.541,2.5449,2.5424,2.5415,2.5446,2.5357,2.5396,2.5386,2.5386,2.5374,2.5359,2.5346,2.5522,2.5523,2.5523,0,0,2.4992,2.5026,2.5007,2.5036,2.5082,2.5128,2.5123,2.5183,2.5208,2.5201,2.527,2.5273,2.5288,2.5315,2.533,2.5236,2.5286,2.5238,2.5167,2.5151,2.5139,2.5128,2.5097,2.5084,2.5232,2.5231,2.5231,0,2.491,2.4919,2.4989,2.4985,2.5001,2.5086,2.5066,2.5091,2.5137,2.5146,2.5181,2.5205,2.5237,2.5221,2.5199,2.5207,2.5205,2.5232,2.5136,2.5126,2.5117,2.5087,2.5075,2.5225,2.5226,2.5227,2.5227,0,2.4818,2.4822,2.4801,2.4848,2.4861,2.4849,2.4917,2.4922,2.4967,2.5009,2.5002,2.5044,2.5069,2.5068,2.511,2.5059,2.5077,2.5122,2.5183,2.5094,2.5068,2.5057,2.5217,2.5219,2.5221,2.5222,0,0,2.4635,2.4725,2.4716,2.474,2.4799,2.4803,2.4795,2.4823,2.4826,2.4856,2.4852,2.4865,2.4909,2.4926,2.4973,2.4959,2.4885,2.5007,2.5009,2.4984,2.4833,2.4799,2.4785,2.4919,2.4917,2.4915,2.483,0,2.454,2.4534,2.4599,2.4575,2.4581,2.4663,2.4657,2.4692,2.4731,2.4741,2.4784,2.4794,2.485,2.4862,2.4852,2.4896,2.4856,2.4903,2.4915,2.4915,2.4904,2.4771,2.4735,2.4652,2.482,2.4819,2.4817,0,2.4427,2.4455,2.4432,2.4496,2.4501,2.4494,2.4526,2.4535,2.4577,2.4607,2.4628,2.4682,2.4679,2.4737,2.4733,2.4764,2.4773,2.4796,2.4794,2.4798,2.4861,2.4772,2.4627,2.4615,2.4801,2.4803,2.4804,0,2.4298,2.433,2.4322,2.434,2.4413,2.4407,2.4436,2.4481,2.4495,2.4522,2.4532,2.4556,2.457,2.4588,2.4648,2.4684,2.4638,2.47,2.4663,2.4662,2.465,2.4649,2.4505,2.4653,2.4654,2.4654,2.4654,0,2.4185,2.4168,2.4266,2.4261,2.4245,2.432,2.4302,2.434,2.438,2.4383,2.4454,2.4455,2.4534,2.4544,2.4591,2.4582,2.4587,2.4611,2.4624,2.4605,2.4602,2.4612,2.462,2.4651,2.4651,2.4652,2.4653,0,2.4039,2.4104,2.4101,2.4172,2.4189,2.4175,2.4235,2.4233,2.4279,2.4282,2.4287,2.4358,2.4374,2.4436,2.4465,2.4497,2.4473,2.4497,2.446,2.4468,2.4428,2.4431,2.4285,2.427,2.4427,2.4425,2.4424,0,2.3963,2.3953,2.4024,2.4034,2.4061,2.4074,2.4089,2.4163,2.4175,2.4225,2.4217,2.4239,2.4261,2.4282,2.4335,2.4359,2.4385,2.4332,2.4388,2.4371,2.4386,2.4386,2.4386,2.4319,2.4317,2.4316,2.4314,0,2.3822,2.3855,2.3876,2.3908,2.3926,2.3954,2.3986,2.3989,2.4071,2.4081,2.4101,2.4118,2.4151,2.4172,2.4205,2.4235,2.4288,2.4296,2.4289,2.427,2.425,2.4262,2.4428,2.4299,2.4301,2.4302,2.4303,2.4303,2.3709,2.3706,2.3757,2.3778,2.3811,2.3841,2.3844,2.3891,2.3909,2.3944,2.3985,2.4,2.4044,2.4095,2.4121,2.4132,2.4162,2.4151,2.4148,2.4145,2.4136,2.4248,2.4138,2.4139,2.4139,2.414,2.414,0,2.3574,2.3612,2.3631,2.3676,2.3693,2.3745,2.3784,2.3795,2.3807,2.3845,2.3867,2.389,2.3912,2.3968,2.3995,2.3994,2.4019,2.3998,2.4,2.4006,2.4108,2.4112,2.3978,2.3978,2.3978,2.3978,2.3978,2.3978,2.3505,2.3502,2.3542,2.3557,2.3595,2.3612,2.363,2.3658,2.369,2.3713,2.3733,2.377,2.3816,2.3848,2.3871,2.3887,2.3894,2.3865,2.3889,2.3983,2.3998,2.4013,2.4018,2.3866,2.3866,2.3787,2.3786,2.3786]}]]